User: anonymous   Login
Location: Unspecified
(0.0000°N, 0.0000°E)
Time: 07:54:46
(UTC+00:00)
Language:

Transit 2A Rocket - Orbit

View from above orbital plane
View from above orbital plane
View from above satellite
View from above satellite

Ground track
Ground track

The orbit data is extracted from the following two-line orbital elements,

1    47U 60007C   17228.57377814 -.00000061 +00000-0 +11518-4 0  9994
2    47 066.6657 044.5082 0230622 339.2486 019.9366 14.41929844985341
Epoch (UTC): 16 August 2017 13:46:14
Eccentricity: 0.0230622
inclination: 66.6657°
perigee height: 587 km
apogee height: 916 km
right ascension of ascending node: 44.5082°
argument of perigee: 339.2486°
revolutions per day: 14.41929844
mean anomaly at epoch: 19.9366°
orbit number at epoch: 98534

The dashed part of the orbit path shows where the satellite is in the earth's shadow,  

DLR